Location: Hines Observatory
(31.5604°N, 83.5172°W)
Time: 16:47:43
(UTC-04:00)

Daily predictions for brighter satellites

Satellite Brightness Start Highest point End
(mag) Time Altitude Azimuth Time Altitude Azimuth Time Altitude Azimuth
METEOR-M 4.1 20:03:06 10° SSE 20:08:23 69° ENE 20:13:41 10° N
Cosmos 1125 Rocket 4.4 20:07:08 10° SSE 20:11:27 27° E 20:15:47 10° NE
COSMOS 2406 3.3 20:06:37 10° NNW 20:12:23 90° WSW 20:18:04 10° SSE
Resurs 01 Rocket 2.9 20:09:09 10° ESE 20:12:28 21° ENE 20:15:49 10° NNE
Cosmos 1766 3.4 20:09:41 10° S 20:13:26 50° E 20:17:12 10° NNE
Delta 168 4.1 20:10:22 10° SW 20:14:08 27° S 20:17:06 10° ESE
Meteor 2-5 Rocket 3.8 20:09:10 10° N 20:14:58 87° E 20:20:51 10° S
Cosmos 1605 Rocket 4.3 20:11:39 10° SSE 20:17:29 43° E 20:23:25 10° NNE
HJ-1C 3.9 20:23:42 10° SE 20:26:53 39° ENE 20:30:05 10° N
SeaSat 1 2.9 20:22:39 10° SE 20:27:14 41° ENE 20:31:50 10° N
Cosmos 2123 Rocket 4.0 20:30:50 10° N 20:37:04 61° E 20:43:13 10° SSE
Cosmos 2344 4.4 20:31:15 10° SW 20:38:47 56° NW 20:46:52 10° NNE
SL-27 R/B 2.4 20:35:34 10° N 20:39:09 70° ENE 20:42:45 10° SSE
RESURS DK-1 2.3 20:36:59 10° NNW 20:41:06 65° ENE 20:45:11 10° SSE
CZ-2D R/B 4.1 20:37:54 11° SE 20:41:06 30° ENE 20:44:30 10° NNE
CZ-3C R/B 3.7 20:37:21 10° WSW 20:42:24 15° SW 20:45:08 10° S
Cosmos 1805 3.2 20:41:34 10° S 20:45:24 64° E 20:49:17 10° NNE
Meteor 1-29 4.2 20:45:59 10° NE 20:48:19 22° E 20:48:19 22° E
In-Cosmos 22 4.0 20:43:41 10° N 20:48:56 62° E 20:54:08 10° SSE
GPS 2-05 Rocket1 3.0 20:45:28 10° W 20:49:01 72° NNW 20:51:22 20° ENE
ALOS 2.4 20:45:36 10° S 20:50:17 81° W 20:54:58 10° NNW
Cosmos 1818 4.4 20:47:14 10° N 20:52:06 32° NE 20:54:41 22° ESE
Resurs 1-3 3.7 20:48:27 10° SSE 20:52:43 53° ENE 20:56:59 10° N
COSMOS 2487 4.3 20:51:34 10° NNE 20:53:16 16° NE 20:53:16 16° NE
Meteor 1-4 Rocket 2.3 20:53:22 10° S 20:56:49 74° E 21:00:17 10° NNE
Timation 1 Rocket 4.5 20:51:39 10° SSW 20:57:39 81° WNW 21:03:42 10° NNE
Yuri Rocket 3.5 20:53:31 10° W 20:57:42 46° S 20:59:42 25° SE
OAO 2 Rocket 4.2 20:53:53 10° SSW 20:58:26 32° SSE 21:00:17 25° ESE
FENGYUN 3A 3.9 20:54:20 10° S 20:59:43 72° WSW 21:05:07 10° NNW
Cosmos 1470 3.4 21:00:37 29° ESE 21:01:28 32° E 21:05:02 10° NNE
Cosmos 1833 Rocket 3.6 20:59:24 10° N 21:04:15 29° ENE 21:05:39 26° E
SJ-6B 4.5 21:01:11 10° SSW 21:04:34 33° W 21:07:57 10° NNW
Cosmos 2278 Rocket 3.8 20:59:38 10° SW 21:04:50 37° WNW 21:10:03 10° N
Cosmos 1544 3.5 21:01:38 10° SSW 21:05:13 62° W 21:08:51 10° N
Cosmos 1408 Rocket 4.2 21:02:59 10° NNE 21:07:06 35° E 21:07:46 33° E
Cosmos 372 Rocket 3.8 21:03:53 10° S 21:08:57 78° ESE 21:14:06 10° NNE
Cosmos 2098 Rocket 4.3 21:03:12 10° S 21:10:09 84° E 21:17:48 10° N
Cosmos 1733 3.7 21:10:59 37° ENE 21:10:59 37° ENE 21:14:07 10° NNE
Cosmos 1459 Rocket 4.2 21:05:12 10° SSE 21:11:08 46° E 21:17:00 10° NNE
Delta 128 3.7 21:09:28 10° WSW 21:13:52 55° S 21:15:07 40° SE
Cosmos 1447 Rocket 4.4 21:09:02 10° N 21:15:09 68° E 21:21:15 10° SSE
ATLAS 5 CENTAUR R/B 1.6 21:11:34 10° SSW 21:16:09 89° WNW 21:21:04 10° NNE
Cosmos 2173 Rocket 4.1 21:11:01 10° SSE 21:16:54 50° E 21:22:52 10° NNE
ISS -3.3 21:14:04 10° WSW 21:17:15 57° NW 21:18:25 33° NNE
H-2A R/B 3.7 21:16:06 10° S 21:19:50 49° W 21:23:39 10° NNW
USA 215 3.1 21:13:58 10° NE 21:20:31 78° SE 21:27:01 10° SW
Cosmos 2297 4.2 21:14:58 10° SSW 21:20:36 64° WNW 21:26:18 10° NNE
H-II Stage 2 2.0 21:19:06 10° WSW 21:20:30 36° SW 21:20:30 36° SW
Cosmos 158 Rocket 4.3 21:17:11 10° N 21:22:06 43° ENE 21:22:45 41° E
Okean 3 Rocket 4.2 21:18:41 10° NNW 21:23:00 57° W 21:27:20 10° S
Cosmos 1867 4.4 21:17:50 10° SW 21:23:06 52° WNW 21:28:26 10° NNE
Spot 2 Rocket 4.0 21:20:06 10° S 21:25:07 61° WSW 21:30:11 10° NNW
Tiangong 1 1.8 21:23:38 10° WNW 21:25:54 47° W 21:25:54 47° W
Aurora 2 Rocket 3.6 21:20:23 10° WSW 21:26:55 41° S 21:28:04 37° SSE
Helios 1B rocket 3.0 21:31:06 10° N 21:35:09 58° WNW 21:39:10 10° SSW
Cosmos 1076 Rocket 3.8 21:32:03 10° NNW 21:36:15 64° W 21:38:07 31° SSW
Cosmos 1953 4.1 21:34:26 10° SW 21:38:05 32° W 21:41:46 10° NNW
Cosmos 2082 Rocket 2.1 21:34:35 10° NNW 21:40:16 70° ENE 21:41:10 59° ESE
Meteor 2-17 Rocket 4.4 21:40:14 49° SE 21:41:24 57° E 21:47:23 10° NNE
GP-B 3.5 21:40:04 22° SSW 21:42:49 62° W 21:47:13 10° N
Envisat 2.8 21:42:59 69° E 21:43:12 70° ENE 21:48:15 10° N
Cosmos 1939 Rocket 4.2 21:45:32 31° N 21:45:32 31° N 21:47:52 10° N
Helios 1A 3.2 21:43:23 57° SW 21:43:57 66° WSW 21:48:06 10° NNW
OAO 1 4.3 21:38:41 10° WNW 21:44:12 86° NNE 21:44:49 71° E
Cosmos 1271 Rocket 3.4 21:45:01 29° SW 21:46:48 55° W 21:50:46 10° N
Delta 2 Rocket 4.2 21:43:55 10° W 21:47:57 45° SW 21:47:57 45° SW
Cosmos 2016 Rocket 3.8 21:47:02 49° SSE 21:48:37 67° E 21:54:44 10° NNE
Resurs 01 Rocket 3.7 21:45:07 10° SSW 21:48:45 25° W 21:52:26 10° NW
Cosmos 1766 Rocket 4.0 21:47:40 10° NNW 21:52:05 61° W 21:52:36 56° SW
Gblst 52 Del rocket 4.1 21:50:53 10° SW 21:56:47 76° SSE 21:56:47 76° SSE
Cosmos-2242 4.2 21:53:12 10° SSW 21:57:11 40° W 22:01:12 10° N
ERS-1 Rocket 4.2 22:03:22 31° NNE 22:03:22 31° NNE 22:06:07 10° N
Cosmos 1048 Rocket 4.3 21:56:55 10° NNW 22:01:56 59° WSW 22:02:27 56° SW
Lacrosse 5 rocket 3.9 22:01:52 10° N 22:02:25 13° N 22:02:25 13° N
SL-08 R/B 4.4 22:10:08 81° NE 22:10:08 81° NE 22:16:16 10° N
Cosmos 1833 Rocket 4.3 22:43:14 10° NW 22:47:24 29° W 22:47:24 29° W
